Powrót do katalogu

YAOGAN-40 01B

AktywnyMilitariaPO
NORAD 57832·PAYLOAD·🇨🇳 China

Wystrzelony Sep 10, 2023 z Taiyuan Satellite Launch Center

Loading…

Następne Przeloty (najbliższe 24 godziny)

TLE

ŚwieżeSource: Space-Track

Epoka: Sep 14, 2026, 23:33 UTC

1 57832U 23139C   26257.98143451  .00000122  00000-0  56029-4 0  9991
2 57832  85.9918 219.6315 0001982  84.6758 275.4651 14.12462865155383

Śledź YAOGAN-40 01B w czasie rzeczywistym z AllMySat

Download on the App Store